This is the latest recevied weather packets stored in our database for station/object N4LLZ-13. If no packets are shown the sender has not sent any weather packets the latest 10 day(s).
| Time | Temp. | Humidity | Pressure | Rain* | Wind** | Luminosity | Snow |
|---|---|---|---|---|---|---|---|
| 1787862478 | 28.89° C | 70% | 1014.7 hPa | 2.29 mm | - | - | - |
| 1787862177 | 28.89° C | 68% | 1014.5 hPa | 0.51 mm | - | - | - |
| 1787861876 | 29.44° C | 68% | 1014.2 hPa | 0.51 mm | - | - | - |
| 1787861575 | 29.44° C | 66% | 1014.1 hPa | 0.51 mm | - | - | - |
| 1787861274 | 29.44° C | 65% | 1014.1 hPa | 0 mm | - | - | - |
| 1787860973 | 30° C | 65% | 1014 hPa | 0 mm | - | - | - |
| 1787860672 | 30° C | 64% | 1013.9 hPa | 0 mm | - | - | - |
| 1787860372 | 30° C | 63% | 1013.9 hPa | 0 mm | - | - | - |
| 1787860071 | 30.56° C | 63% | 1014 hPa | 0 mm | - | - | - |
| 1787859770 | 30.56° C | 63% | 1014.1 hPa | 0 mm | - | - | - |
| 1787859469 | 31.11° C | 61% | 1014 hPa | 0 mm | - | - | - |
| 1787859168 | 31.11° C | 62% | 1014.1 hPa | 0 mm | - | - | - |
| 1787858867 | 31.67° C | 60% | 1014.2 hPa | 0 mm | - | - | - |
| 1787858567 | 31.67° C | 59% | 1014.2 hPa | 0 mm | - | - | - |
| 1787858266 | 32.22° C | 56% | 1014.2 hPa | 0 mm | - | - | - |
| 1787857965 | 31.67° C | 58% | 1014.3 hPa | 0 mm | - | - | - |
| 1787857664 | 31.67° C | 58% | 1014.3 hPa | 0 mm | - | - | - |
| 1787857363 | 31.67° C | 58% | 1014.3 hPa | 0 mm | - | - | - |
| 1787857062 | 31.67° C | 60% | 1014.4 hPa | 0 mm | - | - | - |
| 1787856761 | 32.22° C | 58% | 1014.5 hPa | 0 mm | - | - | - |
| 1787856460 | 32.22° C | 56% | 1014.5 hPa | 0 mm | - | - | - |
| 1787856160 | 32.22° C | 58% | 1014.6 hPa | 0 mm | - | - | - |
| 1787855859 | 32.22° C | 57% | 1014.6 hPa | 0 mm | - | - | - |
| 1787855558 | 32.22° C | 57% | 1014.7 hPa | 0 mm | - | - | - |
| 1787855257 | 32.22° C | 58% | 1014.9 hPa | 0 mm | - | - | - |
* Rain latest hour (hover to see other rain measurements)
** Current wind speed in m/s (hover to see current wind gust speed)